This is the latest recevied weather packets stored in our database for station/object WB6ANP. If no packets are shown the sender has not sent any weather packets the latest 10 day(s).
| Time | Temp. | Humidity | Pressure | Rain* | Wind** | Luminosity | Snow |
|---|---|---|---|---|---|---|---|
| 1777923574 | 27.78° C | 51% | 1008.9 hPa | 0 mm | - | 916 W/m² | - |
| 1777923271 | 27.78° C | 52% | 1009 hPa | 0 mm | - | 891 W/m² | - |
| 1777922970 | 27.78° C | 54% | 1009 hPa | 0 mm | - | 885 W/m² | - |
| 1777922667 | 27.22° C | 53% | 1009.2 hPa | 0 mm | - | 823 W/m² | - |
| 1777922366 | 27.22° C | 53% | 1009 hPa | 0 mm | - | 923 W/m² | - |
| 1777922064 | 26.67° C | 53% | 1009.2 hPa | 0 mm | - | 925 W/m² | - |
| 1777921758 | 27.22° C | 53% | 1009.3 hPa | 0 mm | - | 602 W/m² | - |
| 1777921454 | 26.67° C | 55% | 1009.5 hPa | 0 mm | - | 725 W/m² | - |
| 1777921151 | 26.67° C | 53% | 1009.3 hPa | 0 mm | - | 851 W/m² | - |
| 1777920849 | 26.67° C | 53% | 1009.3 hPa | 0 mm | - | 838 W/m² | - |
| 1777920544 | 26.67° C | 56% | 1009.5 hPa | 0 mm | - | 924 W/m² | - |
| 1777920240 | 26.67° C | 53% | 1009.7 hPa | 0 mm | - | 862 W/m² | - |
| 1777919936 | 26.67° C | 52% | 1009.8 hPa | 0 mm | - | 965 W/m² | - |
| 1777919634 | 26.67° C | 55% | 1009.8 hPa | 0 mm | - | 778 W/m² | - |
| 1777919331 | 26.67° C | 54% | 1009.7 hPa | 0 mm | - | 799 W/m² | - |
| 1777919029 | 26.67° C | 53% | 1010 hPa | 0 mm | - | 926 W/m² | - |
| 1777918725 | 26.67° C | 53% | 1009.9 hPa | 0 mm | - | 950 W/m² | - |
| 1777918423 | 26.11° C | 56% | 1009.8 hPa | 0 mm | - | 921 W/m² | - |
| 1777918121 | 25.56° C | 56% | 1010 hPa | 0 mm | - | 916 W/m² | - |
| 1777917819 | 25.56° C | 56% | 1010.1 hPa | 0 mm | - | 947 W/m² | - |
| 1777917517 | 25.56° C | 57% | 1010.2 hPa | 0 mm | - | 940 W/m² | - |
| 1777917214 | 25.56° C | 58% | 1010.6 hPa | 0 mm | - | 944 W/m² | - |
| 1777916912 | 25° C | 59% | 1010.5 hPa | 0 mm | - | 870 W/m² | - |
| 1777916609 | 25° C | 59% | 1010.6 hPa | 0 mm | - | 964 W/m² | - |
| 1777916306 | 25° C | 58% | 1010.6 hPa | 0 mm | - | 792 W/m² | - |
* Rain latest hour (hover to see other rain measurements)
** Current wind speed in m/s (hover to see current wind gust speed)